Simultaneous Nadir Overpasses (SNOs) Predictions

Prediction of SNOs between METOP-B and NPP Satellite Orbit:

Table of predicted SNOs for the next 14.0 days since TLE Epoch: 7/5/2019
Index Date (METOP-B) Time (METOP-B) Lat,Lon (METOP-B) SZA (METOP-B ) Date (NPP) Time (NPP) Lat,Lon (NPP) SZA (NPP ) Distance(km) Time Diff (sec)
1 07/06/2019 20:51:14 -73.55, 40.62 129.02 07/06/2019 20:50:08 -73.54, 37.58 128.84 95.76 66
2 07/06/2019 21:41:59 73.29,-152.63 50.76 07/06/2019 21:40:49 73.28,-154.53 50.88 60.74 70
3 07/06/2019 22:32:42 -73.23, 14.56 129.29 07/06/2019 22:31:32 -73.24, 12.87 129.16 54.12 70
4 07/06/2019 23:23:26 73.02,-178.57 50.53 07/06/2019 23:22:13 72.98,-179.25 50.56 22.64 73
5 07/07/2019 00:14:10 -72.90, -11.48 129.57 07/07/2019 00:12:56 -72.95, -11.86 129.48 13.32 74
6 07/07/2019 01:04:51 72.84, 155.73 50.39 07/07/2019 01:03:40 72.84, 155.69 50.40 1.59 71
7 07/07/2019 01:55:33 -72.83, -36.97 129.62 07/07/2019 01:54:24 -72.85, -37.03 129.58 2.84 69
8 07/07/2019 02:46:13 72.82, 130.34 50.38 07/07/2019 02:45:10 72.84, 130.30 50.41 2.48 63
9 07/07/2019 03:36:55 -72.81, -62.35 129.63 07/07/2019 03:35:53 -72.80, -62.30 129.63 1.73 62
10 07/07/2019 04:27:35 72.80, 104.96 50.37 07/07/2019 04:26:39 72.79, 105.03 50.37 2.27 56
11 07/07/2019 05:18:17 -72.79, -87.73 129.64 07/07/2019 05:17:23 -72.81, -87.69 129.62 2.52 54
12 07/07/2019 06:08:57 72.78, 79.58 50.35 07/07/2019 06:08:09 72.80, 79.64 50.38 2.92 48
13 07/07/2019 06:59:38 -72.82,-113.01 129.61 07/07/2019 06:58:53 -72.81,-113.07 129.60 2.08 45
14 07/07/2019 07:50:18 72.81, 54.30 50.39 07/07/2019 07:49:39 72.80, 54.26 50.39 1.59 39
15 07/07/2019 08:41:00 -72.80,-138.40 129.62 07/07/2019 08:40:23 -72.82,-138.45 129.59 2.65 37
16 07/07/2019 09:31:40 72.79, 28.92 50.38 07/07/2019 09:31:09 72.81, 28.88 50.40 2.31 31
17 07/07/2019 10:22:22 -72.78,-163.78 129.63 07/07/2019 10:21:52 -72.77,-163.73 129.64 1.89 30
18 07/07/2019 11:13:02 72.77, 3.53 50.37 07/07/2019 11:12:38 72.76, 3.60 50.36 2.39 24
19 07/07/2019 12:03:44 -72.76, 170.84 129.64 07/07/2019 12:03:22 -72.77, 170.89 129.62 2.43 22
20 07/07/2019 12:54:24 72.75, -21.85 50.36 07/07/2019 12:54:08 72.76, -21.78 50.37 2.87 16
21 07/07/2019 13:45:05 -72.79, 145.56 129.61 07/07/2019 13:44:52 -72.78, 145.50 129.61 2.10 13
22 07/07/2019 14:35:45 72.78, -47.13 50.39 07/07/2019 14:35:38 72.77, -47.17 50.39 1.62 7
23 07/07/2019 15:26:27 -72.77, 120.18 129.62 07/07/2019 15:26:22 -72.78, 120.12 129.60 2.48 5
24 07/07/2019 16:17:07 72.76, -72.51 50.38 07/07/2019 16:17:08 72.77, -72.55 50.40 2.16 1
25 07/07/2019 17:07:49 -72.75, 94.79 129.63 07/07/2019 17:07:51 -72.73, 94.84 129.64 2.03 2
26 07/07/2019 17:58:29 72.73, -97.89 50.37 07/07/2019 17:58:37 72.72, -97.83 50.35 2.50 8
27 07/07/2019 18:49:11 -72.72, 69.41 129.64 07/07/2019 18:49:21 -72.74, 69.46 129.63 2.34 10
28 07/07/2019 19:39:51 72.71,-123.28 50.36 07/07/2019 19:40:07 72.73,-123.21 50.37 2.83 16
29 07/07/2019 20:30:32 -72.75, 44.13 129.61 07/07/2019 20:30:51 -72.74, 44.08 129.62 2.16 19
30 07/07/2019 21:21:12 72.74,-148.56 50.39 07/07/2019 21:21:37 72.73,-148.59 50.38 1.67 25
31 07/07/2019 22:11:54 -72.73, 18.75 129.62 07/07/2019 22:12:21 -72.75, 18.70 129.61 2.32 27
32 07/07/2019 23:02:34 72.72,-173.94 50.38 07/07/2019 23:03:07 72.74,-173.98 50.39 2.02 33
33 07/07/2019 23:53:16 -72.71, -6.63 129.63 07/07/2019 23:53:50 -72.70, -6.58 129.65 2.16 34
34 07/08/2019 00:43:56 72.70, 160.68 50.37 07/08/2019 00:44:36 72.69, 160.75 50.35 2.59 40
35 07/08/2019 01:34:38 -72.69, -32.02 129.64 07/08/2019 01:35:20 -72.70, -31.96 129.64 2.24 42
36 07/08/2019 02:25:17 72.68, 135.29 50.36 07/08/2019 02:26:05 72.69, 135.36 50.36 2.77 48
37 07/08/2019 03:15:58 -72.72, -57.30 129.60 07/08/2019 03:16:49 -72.71, -57.35 129.62 2.23 51
38 07/08/2019 04:06:38 72.71, 110.02 50.40 07/08/2019 04:07:35 72.70, 109.98 50.37 1.75 57
39 07/08/2019 04:57:20 -72.70, -82.68 129.61 07/08/2019 04:58:19 -72.71, -82.73 129.61 2.19 59
40 07/08/2019 05:48:00 72.69, 84.63 50.39 07/08/2019 05:49:05 72.70, 84.60 50.38 1.89 65
41 07/08/2019 06:38:42 -72.68,-108.06 129.62 07/08/2019 06:39:48 -72.67,-108.01 129.66 2.29 66
42 07/08/2019 07:29:22 72.67, 59.25 50.38 07/08/2019 07:30:34 72.66, 59.32 50.34 2.67 72
43 07/08/2019 08:20:04 -72.66,-133.44 129.63 07/08/2019 08:21:18 -72.67,-133.39 129.64 2.15 74
44 07/08/2019 09:10:49 72.39, 33.35 50.14 07/08/2019 09:12:00 72.46, 34.35 50.13 34.21 71
45 07/08/2019 10:01:32 -72.33,-159.44 129.91 07/08/2019 10:02:43 -72.42,-158.26 129.91 40.83 71
46 07/08/2019 10:52:16 72.11, 7.47 49.92 07/08/2019 10:53:24 72.15, 9.57 49.81 71.67 68
47 07/08/2019 11:42:59 -72.05, 174.69 130.13 07/08/2019 11:44:06 -72.07, 177.05 130.29 81.05 67




NCC Satellite Simultaneous Nadir Overpasses (SNOs) Prediction Service
